Location: *
(38.9800°N, 16.0500°E)
Time: 05:42:16
(UTC+00:00)

Cosmos 1066 Rocket - Pass Details

Date: 07 April 2020
Orbit: 798 x 895 km, 81.2° (Epoch: 05 June)

Event Time Altitude Azimuth Distance (km) Brightness Sun altitude
Rises 03:32:11 0° 191° (S) 3,475 7.1 -11.9°
Reaches altitude 10° 03:34:36 10° 192° (SSW) 2,547 6.4 -11.4°
Maximum altitude 03:40:26 79° 279° (W) 916 4.3 -10.3°
Drops below altitude 10° 03:46:20 10° 7° (N) 2,571 7.0 -9.2°
Sets 03:48:48 0° 8° (N) 3,510 7.8 -8.8°
